User: anonymous   Login
Location: ??
(31.9467°N, 34.8903°E)
Time: 11:22:50
(UTC+00:00)
Language:

ATLAS 2AS CENTAUR R/B - Orbit

View from above orbital plane
View from above orbital plane
View from above satellite
View from above satellite

Ground track
Ground track

The orbit data is extracted from the following two-line orbital elements,

1 28096U 03054B   21021.71828016 0.00000000  00000-0  00000-0 0    09
2 28096  63.6872 335.7709 0217190 222.5251 137.4749 13.40864969    07
Epoch (UTC): 21 January 2021 17:14:19
Eccentricity: 0.0217190
inclination: 63.6872°
perigee height: 943 km
apogee height: 1268 km
right ascension of ascending node: 335.7709°
argument of perigee: 222.5251°
revolutions per day: 13.40864969
mean anomaly at epoch: 137.4749°
orbit number at epoch: 0

The dashed part of the orbit path shows where the satellite is in the earth's shadow,  

DLR